"Pseudo-MPEC" for S001563

Created 2026 May 18 13:35:05 UT using Find_Orb

Click here for an explanation of pseudo-MPECs

 
 Astrometry: 
     S001563*KB2026 05 07.04443913 01 16.553-26 41 27.07   ~572o 21.3 VZNEOCPY05
     S001563 KB2026 05 07.05899313 01 16.231-26 41 29.75   ~572o 21.7 VZNEOCPY05
     S001563 KB2026 05 07.07352413 01 15.858-26 41 32.72   ~572o 21.3 VZNEOCPY05

Station data:
(Y05) SONEAR Wykrota-CEAMIG, Serra da Piedade  (S19.824251 W43.690000)
   Brazil.  Observer C. Jacques. 0.45-m f/2.9 reflector + CMO.

Orbital elements:  S001563
   Perihelion 2026 Feb 14.693076 +/- 55 TT = 16:38:01.7 (JD 2461086.193076)
Epoch 2026 May  7.0 TT = JDT 2461167.5   Earth MOID: 0.0842   Ju: 0.6096
M   4.073643306 +/- 22              (J2000 ecliptic)             AutoNEOCP
n   0.050102046 +/- 0.152           Peri.  113.094482 +/- 80
a   7.287284691 +/- 14.8            Node    17.069975 +/- 38
e   0.88493656 +/- 0.246            Incl.   18.671566 +/- 6
P  19.67200                H 20.64  G  0.15   U 11.5  SR
q 0.838500013 +/- 0.61    Q 13.73606936 +/- 110
From 3 observations 2026 May 7 (41.9 min); mean residual 0".13
Residuals in arcseconds: 
260507 Y05  .12-  .06-    260507 Y05  .24+  .12+    260507 Y05  .12-  .06-    

Ephemerides (geocentric):
Date (UTC) HH   RA             Dec           delta  r     elong  mag " sig PA
---- --------  ------------   ------------  ------ ------ -----  --- --------
2026 05 18 14  13 01 05.335   -27 04 46.28  .78398 1.7038 142.9 22.3  28d 109
2026 05 18 15  13 01 05.896   -27 04 49.23  .78468 1.7043 142.9 22.3  28d 109
2026 05 18 16  13 01 06.461   -27 04 52.17  .78537 1.7048 142.8 22.3  28d 109
2026 05 18 17  13 01 07.030   -27 04 55.11  .78607 1.7053 142.8 22.3  28d 109
2026 05 18 18  13 01 07.603   -27 04 58.03  .78677 1.7058 142.8 22.3  28d 109
2026 05 18 19  13 01 08.179   -27 05 00.95  .78747 1.7063 142.7 22.3  28d 109
2026 05 18 20  13 01 08.759   -27 05 03.86  .78817 1.7068 142.7 22.3  28d 109
2026 05 18 21  13 01 09.343   -27 05 06.76  .78886 1.7073 142.7 22.3  28d 109
2026 05 18 22  13 01 09.931   -27 05 09.66  .78956 1.7078 142.6 22.3  28d 109
2026 05 18 23  13 01 10.522   -27 05 12.54  .79026 1.7083 142.6 22.3  28d 109
2026 05 19 00  13 01 11.117   -27 05 15.42  .79096 1.7088 142.6 22.3  28d 109
2026 05 19 01  13 01 11.716   -27 05 18.29  .79166 1.7093 142.6 22.3  28d 109
2026 05 19 02  13 01 12.318   -27 05 21.15  .79236 1.7098 142.5 22.3  28d 109
2026 05 19 03  13 01 12.924   -27 05 24.00  .79306 1.7103 142.5 22.3  28d 109
2026 05 19 04  13 01 13.534   -27 05 26.85  .79376 1.7108 142.5 22.3  28d 109
2026 05 19 05  13 01 14.148   -27 05 29.68  .79446 1.7113 142.4 22.3  28d 109
2026 05 19 06  13 01 14.765   -27 05 32.51  .79516 1.7118 142.4 22.3  28d 109
2026 05 19 07  13 01 15.386   -27 05 35.34  .79586 1.7123 142.4 22.4  28d 109
2026 05 19 08  13 01 16.011   -27 05 38.15  .79656 1.7128 142.3 22.4  28d 109
2026 05 19 09  13 01 16.639   -27 05 40.96  .79726 1.7133 142.3 22.4  28d 109
2026 05 19 10  13 01 17.271   -27 05 43.76  .79796 1.7138 142.3 22.4  28d 109
2026 05 19 11  13 01 17.907   -27 05 46.55  .79867 1.7143 142.2 22.4  28d 109
2026 05 19 12  13 01 18.546   -27 05 49.33  .79937 1.7148 142.2 22.4  28d 109
2026 05 19 13  13 01 19.189   -27 05 52.11  .80007 1.7153 142.2 22.4  28d 109
2026 05 19 14  13 01 19.836   -27 05 54.88  .80077 1.7158 142.1 22.4  28d 109
2026 05 19 15  13 01 20.486   -27 05 57.65  .80148 1.7163 142.1 22.4  28d 109
2026 05 19 16  13 01 21.140   -27 06 00.40  .80218 1.7168 142.1 22.4  28d 109
2026 05 19 17  13 01 21.798   -27 06 03.15  .80288 1.7173 142.0 22.4  28d 109
2026 05 19 18  13 01 22.459   -27 06 05.89  .80358 1.7178 142.0 22.4  28d 109
2026 05 19 19  13 01 23.124   -27 06 08.63  .80429 1.7183 142.0 22.4  28d 109
2026 05 19 20  13 01 23.792   -27 06 11.35  .80499 1.7188 142.0 22.4  28d 109
2026 05 19 21  13 01 24.464   -27 06 14.08  .80570 1.7193 141.9 22.4  28d 109
2026 05 19 22  13 01 25.140   -27 06 16.79  .80640 1.7198 141.9 22.4  28d 109
2026 05 19 23  13 01 25.819   -27 06 19.50  .80710 1.7204 141.9 22.4  28d 109
2026 05 20 00  13 01 26.502   -27 06 22.20  .80781 1.7209 141.8 22.4  28d 109
2026 05 20 01  13 01 27.189   -27 06 24.89  .80851 1.7214 141.8 22.4  28d 109
2026 05 20 02  13 01 27.879   -27 06 27.58  .80922 1.7219 141.8 22.4  28d 109
2026 05 20 03  13 01 28.572   -27 06 30.26  .80993 1.7224 141.7 22.4  28d 109
2026 05 20 04  13 01 29.269   -27 06 32.93  .81063 1.7229 141.7 22.4  28d 109
2026 05 20 05  13 01 29.970   -27 06 35.60  .81134 1.7234 141.7 22.4  28d 109
2026 05 20 06  13 01 30.675   -27 06 38.26  .81204 1.7239 141.6 22.4  28d 109
2026 05 20 07  13 01 31.382   -27 06 40.91  .81275 1.7244 141.6 22.4  28d 109
2026 05 20 08  13 01 32.094   -27 06 43.56  .81346 1.7249 141.6 22.4  28d 109
2026 05 20 09  13 01 32.809   -27 06 46.20  .81416 1.7254 141.5 22.4  28d 109
2026 05 20 10  13 01 33.527   -27 06 48.84  .81487 1.7259 141.5 22.4  28d 109
2026 05 20 11  13 01 34.250   -27 06 51.47  .81558 1.7264 141.5 22.4  28d 109
2026 05 20 12  13 01 34.975   -27 06 54.09  .81628 1.7269 141.4 22.4  28d 109
2026 05 20 13  13 01 35.704   -27 06 56.71  .81699 1.7274 141.4 22.4  28d 109